Regional Weather Roundup
Issued by NWS

Home | Current Version | Previous Version | Text Only | Print | Product List | Glossary On
Versions: 1 2 3 4 5 6 7 8 9 10 11 12 13 14 15 16 17 18 19 20 21 22 23 24 25 26 27 28 29 30 31 32 33 34 35 36 37 38 39 40 41 42 43 44 45 46 47 48 49 50
000
ASUS44 KLIX 280110
RWRLA
LOUISIANA WEATHER ROUNDUP
NATIONAL WEATHER SERVICE NEW ORLEANS LA
700 PM CST TUE JAN 27 2015

NOTE: "FAIR" INDICATES FEW OR NO CLOUDS BELOW 12,000 FEET WITH NO
      SIGNIFICANT WEATHER AND/OR OBSTRUCTIONS TO VISIBILITY.
      SKY/WX - SKY CONDITION AND SIGNIFICANT WEATHER.
      TMP - AIR TEMPERATURE.    DP   - DEWPOINT TEMPERATURE.
      RH  - RELATIVE HUMIDITY.  PRES - PRESSURE.
      HX  - HEAT INDEX.         WCI  - WIND CHILL INDEX.

*  THESE STATIONS ARE NOT NWS OR FAA STATIONS AND ARE NOT UNDER
   NWS QUALITY CONTROL.

LAZ040-048-061>063-065-066-069-280200-
SOUTHEAST LOUISIANA

CITY           SKY/WX    TMP DP  RH WIND       PRES   REMARKS
N.O. AUDUBON     N/A     68  42  38 MISG        N/A
N.O. INTL ARPT CLEAR     64  40  41 N5        30.11R
N.O. LAKEFRONT CLEAR     60  47  61 NW8       30.12R
N.O. DOWNTOWN* FAIR     N/A N/A N/A NW3       30.12R
SLIDELL        CLEAR     53  45  74 CALM      30.11R
BATON ROUGE    PTCLDY    60  34  37 CALM      30.12R
BOOTHVILLE     CLEAR     58  54  86 SW6       30.12R
BELLE CHASSE   CLEAR     53  40  61 CALM      30.11R
BOGALUSA*        N/A     53  41  64 CALM      30.12R
GALLIANO*      CLEAR     56  51  82 MISG      30.13R
NEW ROADS*     FAIR      60  38  44 NW6       30.13S
GONZALES*      FAIR      59  42  52 CALM      30.12R
HAMMOND*       CLEAR     55  41  58 CALM      30.13R
HOUMA*         CLEAR     55  46  71 CALM      30.12R
PORT FOURCHON* CLEAR     61  55  82 W5        30.16R

$$

LAZ041-044-053-054-280200-
SOUTHWEST LOUISIANA

CITY           SKY/WX    TMP DP  RH WIND       PRES   REMARKS
LAKE CHARLES   CLEAR     61  48  62 S6        30.13R
LAFAYETTE      PTCLDY    63  38  39 CALM      30.13R
PATTERSON      CLEAR     57  46  67 SW5       30.14R
SALT POINT       N/A     54  52  93 SW3       30.13R
NEW IBERIA     CLEAR     60  44  55 CALM      30.13R
CHENAULT AIRPK NOT AVBL

$$

LAZ027-028-280200-
CENTRAL LOUISIANA

CITY           SKY/WX    TMP DP  RH WIND       PRES   REMARKS
FORT POLK      CLEAR     55  45  68 VRB1      30.13R
ALEXANDRIA INT CLEAR     60  41  49 CALM      30.12R
ALEXANDRIA     CLEAR     54  42  64 CALM      30.14R

$$

LAZ001-002-280200-
NORTHWEST LOUISIANA

CITY           SKY/WX    TMP DP  RH WIND       PRES   REMARKS
SHREVEPORT     CLEAR     58  39  49 CALM      30.12R
BARKSDALE AFB  CLEAR     56  37  49 S5        30.13R
DTN SHREVEPORT CLEAR     57  34  41 CALM      30.13R

$$

LAZ014-016-280200-
NORTHEAST LOUISIANA

CITY           SKY/WX    TMP DP  RH WIND       PRES   REMARKS
MONROE         CLEAR     51  40  65 CALM      30.16R
TALLULAH       CLEAR     52  39  61 CALM      30.16R

$$




USA.gov is the U.S. government's official web portal to all federal, state and local government web resources and services.